Regional Weather Roundup
Issued by NWS Green Bay, WI

Home | Current Version | Previous Version | Graphics & Text | Print | Product List | Glossary Off
Versions: 1 2 3 4 5 6 7 8 9 10 11 12 13 14 15 16 17 18 19 20 21 22 23 24 25 26 27 28 29 30 31 32 33 34 35 36 37 38 39 40 41 42 43 44 45 46 47 48 49 50

000
ASUS43 KGRB 231300
RWRGRB

NORTH-CENTRAL AND NORTHEAST WISCONSIN REGIONAL WEATHER ROUNDUP
NATIONAL WEATHER SERVICE GREEN BAY WI
800 AM CDT TUE AUG 23 2016

WIZ005-009-010>012-018-019-231400-
NORTH CENTRAL WISCONSIN

CITY           SKY/WX    TMP DP  RH WIND       PRES   REMARKS
IRONWOOD       SUNNY     68  60  75 SW12      29.99S
MANITOWISH WTR NOT AVBL
ARBOR VITAE    NOT AVBL
EAGLE RIVER    NOT AVBL
LAND O LAKES   NOT AVBL
RHINELANDER    SUNNY     65  62  90 S12       30.09S
PHILLIPS       CLOUDY    63  60  90 S7        30.05S
ANTIGO         NOT AVBL
TOMAHAWK       NOT AVBL
MERRILL        SUNNY     65  61  86 S6        30.09S
$$

WIZ013-073-231400-
NORTHEAST WISCONSIN

CITY           SKY/WX    TMP DP  RH WIND       PRES   REMARKS
IRON MOUNTAIN  SUNNY     63  58  83 S8        30.09R
MARINETTE      SUNNY    N/A N/A N/A SW9       30.12R
$$

WIZ017-030-035>037-045-231400-
CENTRAL WISCONSIN

CITY           SKY/WX    TMP DP  RH WIND       PRES   REMARKS
MEDFORD        NOT AVBL
WAUSAU         SUNNY     65  60  84 SW3       30.09R
MOSINEE        SUNNY     64  63  94 S10       30.11S
MARSHFIELD     SUNNY     63  59  87 S9        30.09R
WISC RAPIDS    SUNNY     66  61  84 S6        30.12R
STEVENS POINT  NOT AVBL
WAUPACA        NOT AVBL
SHAWANO        NOT AVBL
CLINTONVILLE   SUNNY     63  59  88 S6        30.11S
WAUTOMA        SUNNY     64  60  87 S5        30.13R
$$

WIZ038-039-048-051-231400-
FOX VALLEY

CITY           SKY/WX    TMP DP  RH WIND       PRES   REMARKS
NWS GREEN BAY  SUNNY     65  62  90 S8        30.13R
APPLETON       MOSUNNY   64  55  72 S7        30.12R
OSHKOSH        SUNNY     65  59  81 S8        30.14R
FOND DU LAC    SUNNY     67  59  75 S7        30.15R
$$

WIZ022-050-052-231400-
EAST CENTRAL WISCONSIN

CITY           SKY/WX    TMP DP  RH WIND       PRES   REMARKS
EPHRAIM        FAIR      66  60  80 S6        30.11S
WASHINGTON ISL NOT AVBL
STURGEON BAY   SUNNY     68  58  70 S14       30.13
MANITOWOC      NOT AVBL
SHEBOYGAN      SUNNY     64  58  80 S7        30.16R
$$

LMZ563-521-522-541>543-231400-
LAKESHORE

STATION/POSITION TIME  TEMP    WIND        PRES    VSBY  WAVE
                       AIR SEA DIR/SP/G                  HT/PER
                 (UTC) (F)     (DEG/KT/KT) (MB)    (MI)  (FT/S)
SHEBOYGAN LKSHOR 1200   63     190/ 11/ 11 1021.2R
KEWAUNEE LKSHORE 1200   65     190/  8/ 10 1020.0R
N MID LAKE BUOY  1150   72 71  210/ 25/ 29 1017.4F         5/ 6
S GREEN BAY BUOY 1200   68 73  180/ 17/ 19 1019.0R
SISTER BAY LKSHO 1207   69     190/ 16/ 19   N/A
CHAMBERS ISLAND  1200   69     180/  4/ 12 1019.3R
MENOMINEE LKSHOR 1200   68     190/  8/ 10 1018.7R
$$




USA.gov is the U.S. government's official web portal to all federal, state and local government web resources and services.